This is the latest recevied weather packets stored in our database for station/object VK3BYD-3. If no packets are shown the sender has not sent any weather packets the latest 10 day(s).
| Time | Temp. | Humidity | Pressure | Rain* | Wind** | Luminosity | Snow |
|---|---|---|---|---|---|---|---|
| 1777823155 | 11.11° C | 97% | 1013.7 hPa | 0.25 mm | - | - | - |
| 1777822255 | 11.67° C | 97% | 1014.2 hPa | 0.51 mm | - | - | - |
| 1777821354 | 11.67° C | 97% | 1014.4 hPa | 0.51 mm | - | - | - |
| 1777820455 | 11.67° C | 97% | 1014.1 hPa | 0.51 mm | - | - | - |
| 1777819556 | 12.22° C | 97% | 1014.1 hPa | 0.51 mm | - | - | - |
| 1777818653 | 12.22° C | 97% | 1014.4 hPa | 0.51 mm | - | - | - |
| 1777817753 | 12.22° C | 97% | 1014.9 hPa | 1.02 mm | - | - | - |
| 1777816851 | 12.22° C | 97% | 1015.2 hPa | 1.27 mm | - | - | - |
| 1777815951 | 12.22° C | 97% | 1015.2 hPa | 1.52 mm | - | - | - |
| 1777815050 | 12.22° C | 97% | 1015.4 hPa | 2.03 mm | - | - | - |
| 1777814148 | 12.22° C | 96% | 1015.2 hPa | 2.29 mm | - | - | - |
| 1777813249 | 12.78° C | 96% | 1015.2 hPa | 3.05 mm | - | - | - |
| 1777812349 | 12.78° C | 95% | 1015.4 hPa | 2.79 mm | - | - | - |
| 1777811448 | 13.89° C | 96% | 1015.4 hPa | 2.29 mm | - | - | - |
| 1777810545 | 13.89° C | 96% | 1015.5 hPa | 1.78 mm | - | - | - |
| 1777809642 | 15° C | 97% | 1015 hPa | 0.76 mm | - | - | - |
| 1777808743 | 15° C | 97% | 1014.9 hPa | 0.51 mm | - | - | - |
| 1777807842 | 15° C | 97% | 1014.5 hPa | 2.29 mm | - | - | - |
| 1777806942 | 15° C | 97% | 1014.5 hPa | 3.81 mm | - | - | - |
| 1777806034 | 15° C | 96% | 1014.6 hPa | 4.06 mm | - | - | - |
| 1777805133 | 15° C | 96% | 1014.6 hPa | 4.32 mm | - | - | - |
| 1777804231 | 15° C | 96% | 1014.7 hPa | 2.29 mm | - | - | - |
| 1777803328 | 15° C | 96% | 1014.5 hPa | 0.51 mm | - | - | - |
| 1777802427 | 15° C | 96% | 1014.4 hPa | 1.02 mm | - | - | - |
| 1777801526 | 15° C | 96% | 1014.6 hPa | 1.52 mm | - | - | - |
* Rain latest hour (hover to see other rain measurements)
** Current wind speed in m/s (hover to see current wind gust speed)